{"data":{"norad_id":43820,"epoch":"2026-05-25T03:13:51.511872Z","epoch_age_seconds":70236,"freshness":"FRESH","line1":"1 43820U 18099BQ  26145.13462398  .00008486  00000+0  37022-3 0  9990","line2":"2 43820  97.3977 197.9768 0009044  41.5917 318.6005 15.22365395409021","mean_motion":15.22365395,"eccentricity":0.0009044,"inclination_deg":97.3977,"raan_deg":197.9768,"arg_perigee_deg":41.5917,"mean_anomaly_deg":318.6005,"bstar":0.00037022,"rev_number":40902,"period_min":94.589643506709,"perigee_km":492.48863415756,"apogee_km":504.92747148911,"semimajor_km":6876.8450528233,"source":"CELESTRAK","updated_at":"2026-05-25T13:37:55.902472Z"}}